Volver al catálogo

WESTFORD NEEDLES

ActivoPO
NORAD 3255·DEBRIS·🇺🇸 United States

Lanzado May 9, 1963 desde Vandenberg Space Force Base

Loading…

Próximos Pases (próximas 24 horas)

TLE

ActualizadoSource: Space-Track

Época: Sep 13, 2026, 03:44 UTC

1  3255U 63014BV  26256.15615714  .00000347  00000-0  15570+0 0  9991
2  3255  87.3561 160.9428 0185944  93.9418 268.2715  8.66828129389047

Sigue WESTFORD NEEDLES en tiempo real con AllMySat

Download on the App Store